Weather in Samukh

Azerbaijan     40°45′52″N   46°24′28″E
temp.,
°C
wind,
m/s
gust,
m/s
humid.,
%
clouds,
%
prec.,
mm/h
press.,
hPa
HPBL,
m
26 february, fri
fri2601:000wnw22610 0.0 103232
04:000wnw236312 0.0 103163
07:00−1w23670 0.0 103054
10:00+2w235313 0.0 1028286
13:00+6wnw134311 0.0 1027744
16:00+8wsw23366 0.0 1024996
19:00+7w224384 0.0 102531
22:00+6wsw234892 0.0 102643
27 february, sat
sat2701:00+5wnw375596 0.0 1026176
04:00+3wnw486253 0.0 1025194
07:00+2wnw36640 0.0 1024137
10:00+5wnw47560 0.0 1023410
13:00+9nw45410 0.0 1020836
16:00+11nw33360 0.0 10181065
19:00+9w22460 0.0 101829
22:00+7sw22540 0.0 101922
28 february, sun
sun2801:00+5wsw01600 0.0 101822
04:00+5wnw23600 0.0 101725
07:00+4wnw35590 0.0 101778
10:00+7wnw35480 0.0 1016278
13:00+12nw33350 0.0 1014732
16:00+13nw22300 0.0 1013931
19:00+11wsw23370 0.0 101427
22:00+10wsw23460 0.0 101635
1 march, mon
mon101:00+9w510480 0.0 1016230
04:00+7wnw511520 0.0 1017266
07:00+6wnw59570 0.0 1018212
10:00+10wnw913512 0.0 1019733
13:00+12nw894229 0.0 10191206
16:00+13wnw673550 0.0 10191519
19:00+11nw5548100 0.0 1021828
22:00+9w3548100 0.1 1023996
2 march, tue
tue201:00+7s4359100 0.2 1024287
04:00+5sse2385100 0.8 1024374
07:00+4ese2393100 2.2 1025199
10:00+5ese2279100 2.6 1026370
13:00+6e2275100 0.1 1026589
16:00+6ese2174100 0.4 1025601
19:00+6ene227799 0.3 1025437
22:00+5ene3382100 0.4 1026262